Volver al catálogo

COSMOS 2251 DEB

ActivoLEO
NORAD 33844·DEBRIS·🇷🇺 Russia

Lanzado Jun 16, 1993 desde Plesetsk Cosmodrome

Loading…

Próximos Pases (próximas 24 horas)

TLE

ActualizadoSource: Space-Track

Época: Sep 14, 2026, 02:54 UTC

1 33844U 93036CM  26257.12115800  .00000556  00000-0  20450-3 0  9993
2 33844  74.0636 269.7495 0049404 225.7610 199.7817 14.34265934916735

Sigue COSMOS 2251 DEB en tiempo real con AllMySat

Download on the App Store